Miscellaneous Local Product
Issued by NWS Hastings, NE

Home | Current Version | Previous Version | Text Only | Print | Product List | Glossary On
Versions: 1 2 3 4 5 6 7 8 9 10 11 12 13 14 15 16 17 18 19 20 21 22 23 24 25 26 27 28 29 30 31 32 33 34 35 36 37 38 39 40 41 42 43 44 45 46 47 48 49 50
000
AXUS43 KGID 282102
MISGRI

GID CWA HOURLY WEATHER ROUNDUP
NATIONAL WEATHER SERVICE HASTINGS NE
400 PM CDT MON JUL 28 2014

NOTE: "FAIR" INDICATES FEW OR NO CLOUDS BELOW 12,000 FEET WITH NO
SIGNIFICANT WEATHER AND/OR OBSTRUCTIONS TO VISIBILITY.

...SOUTH CENTRAL NEBRASKA...

CITY           SKY/WX    TMP DP  RH WIND       PRES   REMARKS
GRAND ISLAND   CLOUDY    76  55  48 N3        30.27F
HASTINGS       MOSUNNY   77  55  46 VRB5      30.27F
KEARNEY        SUNNY     79  55  44 NE6       30.27F
ORD            MOSUNNY   79  54  41 NE6       30.26F
YORK           PTSUNNY   75  57  53 N13       30.27F
AURORA         MOSUNNY   77  56  49 N5        30.27F
LEXINGTON      SUNNY     81  56  41 E3        30.27S
HOLDREGE       SUNNY     79  56  46 CALM      30.27F
HEBRON         PTSUNNY   78  53  42 N6        30.25F

...NEBRASKA PANHANDLE...

CITY           SKY/WX    TMP DP  RH WIND       PRES   REMARKS
CHADRON        SUNNY     87  56  34 E9        30.23F
ALLIANCE       SUNNY     86  56  35 VRB5      30.26F
SCOTTSBLUFF    SUNNY     88  60  38 E10       30.25F
SIDNEY         SUNNY     90  54  29 SE12G18   30.27F

...WESTERN AND NORTH CENTRAL NEBRASKA...

CITY           SKY/WX    TMP DP  RH WIND       PRES   REMARKS
VALENTINE      SUNNY     81  52  36 SE6       30.28F
AINSWORTH      SUNNY     77  51  40 CALM      30.29S
ONEILL         SUNNY     76  48  37 N6        30.28F
BROKEN BOW     PTSUNNY   80  56  43 NW3       30.27F
IMPERIAL       MOSUNNY   89  56  32 E10       30.24F
NORTH PLATTE   SUNNY     83  58  42 E8        30.25F
MCCOOK         SUNNY     87  57  35 SE8       30.24F

...EASTERN NEBRASKA...

CITY           SKY/WX    TMP DP  RH WIND       PRES   REMARKS
NORFOLK        SUNNY     77  52  41 N13G18    30.26F
SO SIOUX CITY  SUNNY     79  58  48 NW8       30.22F
TEKAMAH        PTSUNNY   80  56  43 N8        30.22F
ALBION         MOSUNNY   72  53  51 N5        30.28S
OMAHA EPPLEY   MOSUNNY   78  54  43 N8        30.22F
OFFUTT AFB     MOSUNNY   77  55  46 N6        30.21F
MILLARD        MOSUNNY   75  56  51 N5        30.22F
LINCOLN        MOSUNNY   78  52  40 N14       30.25F
NEBRASKA CITY  SUNNY     76  53  44 N9        30.23F
BEATRICE       PTSUNNY   75  58  54 N7        30.24F
FALLS CITY     MOSUNNY   78  57  48 NW8       30.21F

...NORTHERN KANSAS...

CITY           SKY/WX    TMP DP  RH WIND       PRES   REMARKS
GOODLAND       SUNNY     85  55  35 S14G24    30.28F
HILL CITY      SUNNY     88  54  31 SE8       30.23F
NORTON         CLEAR     88  48  25 SE7       30.23F
PHILLIPSBURG   SUNNY     84  52  32 NE8       30.24F
SMITH CENTER   SUNNY     84  52  32 NW6       30.24F
HAYS           SUNNY     86  57  37 S6        30.24F
RUSSELL        SUNNY     86  56  35 N5        30.23F
CONCORDIA      MOSUNNY   82  58  43 N9        30.23F
SALINA         SUNNY     88  53  30 VRB6G18   30.21F
TOPEKA         MOSUNNY   85  56  37 NW12      30.20F



USA.gov is the U.S. government's official web portal to all federal, state and local government web resources and services.